Other Public Products
Issued by NWS Charleston, SC

Current Version | Previous Version | Text Only | Print | Product List | Glossary Off
Versions: 1 2 3 4 5 6 7 8 9 10 11 12 13 14 15 16 17 18 19 20 21 22 23 24 25 26 27 28 29 30 31 32 33 34 35 36 37 38 39 40 41 42 43 44 45 46 47 48 49 50

000
FPUS82 KCHS 222127
OPUCHS

TEST...KCHS/KSAV Gateway Observations...TEST
National Weather Service Charleston SC
500 PM EDT THU JUN 22 2017

NOTE: "fair" indicates few or no clouds below 12,000 feet with no
significant weather and/or obstructions to visibility.

SCZ050-WAZ558-NCZ071-TXZ119-213-PAZ071-DCZ001-FLZ074-172-MI076-
NYZ176-178-MAZ016-IL014-TNZ027-NJZ106-GAZ044-MD014-222200-

...Gateway Observations for Charleston International...

CITY           SKY/WX    TMP DP  RH WIND       PRES   REMARKS
Chas Airport   CLOUDY    86  75  69 S13       30.05F HX  95
Seattle        FAIR      73  47  39 N13G20    30.27F
Charlotte      LGT RAIN  77  70  79 SW3       30.10S
Dallas DFW     CLOUDY    89  72  56 VRB6      29.65F HX  96
Dallas Love    CLOUDY    86  71  60 N7        29.66F HX  91
Philladelphia  CLOUDY    88  66  48 SW13      29.93F HX  90
Wash National  CLOUDY    87  69  54 SW13      29.96F HX  91
Baltimore      CLOUDY    86  69  56 SW8       29.95F HX  90
Miami          PTSUNNY   88  72  58 SE9       30.03F HX  94
Detroit        CLOUDY    87  68  52 SW15G25   29.84S HX  90
Newark         PTSUNNY   84  64  50 SE9       29.92F
Laguardia      PTSUNNY   82  59  45 S15G22    29.92F
J F K          PTSUNNY   78  66  66 S8        29.95F
Boston Logan   PTSUNNY   84  52  33 NW10      29.88S
Ft. Lauderdale PTSUNNY   86  75  69 E15       30.03F HX  95
Chicago O`Hare PTSUNNY   88  68  51 SW16G23   29.74F HX  91
Chicago Midway LGT RAIN  84  72  67 S20G28    29.76F
Houston Bush   PTSUNNY   87  74  64 W7        29.67F HX  95
Houston Hobby  CLOUDY    89  74  60 SW9       29.68F HX  98
Nashville      LGT RAIN  81  75  82 S16       29.91F
Atlanta        LGT RAIN  81  75  82 S8        30.02F

$$

GAZ044-118-TXZ119-213-NCZ071-DCZ001-MDZ014-506-PAZ021-071-NJZ106-
NYZ176-178-MAZ106-OHZ011-021-055-MIZ076-KYZ091-ILZ014-INZ047-
MNZ060-ONZ431-222200-

...Gateway Observations for Savannah International...

CITY           SKY/WX    TMP DP  RH WIND       PRES   REMARKS
Savannah Arpt  CLOUDY    85  75  72 E12       30.05S HX  93
Atlanta        LGT RAIN  81  75  82 S8        30.02F
Charlotte      LGT RAIN  77  70  79 SW3       30.10S
Dallas DFW     CLOUDY    89  72  56 VRB6      29.65F HX  96
Houston Bush   PTSUNNY   87  74  64 W7        29.67F HX  95
Wash National  CLOUDY    87  69  54 SW13      29.96F HX  91
Wash Dulles    CLOUDY    85  69  58 SW9       29.97F
Baltimore      CLOUDY    86  69  56 SW8       29.95F HX  90
Philadelphia   CLOUDY    88  66  48 SW13      29.93F HX  90
Newark         PTSUNNY   84  64  50 SE9       29.92F
Laguardia      PTSUNNY   82  59  45 S15G22    29.92F
J F K          PTSUNNY   78  66  66 S8        29.95F
Boston         PTSUNNY   84  52  33 NW10      29.88S
Pittsburg      PTSUNNY   84  69  60 SW14G22   29.95F
Akron          PTSUNNY   86  65  49 SW20      29.93F
Cleveland      MOSUNNY   88  67  49 SW16G28   29.89F HX  91
Cincinnati     CLOUDY    79  68  69 S17G24    29.95F
Columbus       CLOUDY    83  70  65 SW17      29.93F
Detroit        CLOUDY    87  68  52 SW15G25   29.84S HX  90
Chicago O`Hare PTSUNNY   88  68  51 SW16G23   29.74F HX  91
Minneapolis    CLOUDY    68  64  87 NW9       29.76R
Indianapolis   CLOUDY    79  70  74 S23G32    29.88F
Toronto Canada PTSUNNY   72  63  73 SE9       29.83S

$$




USA.gov is the U.S. government's official web portal to all federal, state and local government web resources and services.